Location: Unspecified
(0.0000°N, 0.0000°E)
Time: 22:30:19
(UTC+00:00)

NTS 1 - Visible Passes

Search period start: 30 May 2024 00:00
Search period end: 09 June 2024 00:00
Orbit: 13478 x 13741 km, 124.7° (Epoch: 27 May)

Date Brightness Start Highest point End Pass type
(mag) Time Alt. Az. Time Alt. Az. Time Alt. Az.
30 May ? 02:20:53 10° E 03:15:57 39° SSE 04:09:01 10° SSW visible
30 May ? 20:18:53 10° SSE 21:12:15 40° SSW 22:07:08 10° W visible
31 May ? 01:58:08 10° E 02:49:34 34° SSE 03:39:13 10° SSW visible
31 May ? 19:49:04 10° SSE 20:45:25 46° SW 21:43:19 10° WNW visible
01 Jun ? 01:36:01 10° ESE 02:23:31 30° SSE 03:09:30 10° SSW visible
01 Jun ? 19:19:20 10° SSE 20:18:17 52° SW 21:18:45 10° WNW visible
02 Jun ? 01:14:21 10° ESE 01:57:46 26° SSE 02:40:00 10° SSW visible
02 Jun ? 18:49:43 10° SSE 19:50:55 58° SW 20:53:25 10° WNW visible
03 Jun ? 00:52:57 10° ESE 01:32:20 23° SSE 02:10:49 10° SSW visible
03 Jun ? 18:20:18 10° SSE 19:23:20 65° SW 20:27:24 10° WNW visible
04 Jun ? 00:31:31 10° SE 01:07:09 20° SSE 01:42:10 10° SSW visible
04 Jun ? 17:51:08 10° SE 18:55:36 73° SW 20:00:43 10° NW visible
05 Jun ? 00:09:42 10° SE 00:42:12 19° S 01:14:17 10° SSW visible
05 Jun ? 05:34:59 10° NE 06:40:36 77° NW 07:47:42 10° SW visible
05 Jun ? 17:22:15 10° SE 18:27:44 80° SW 19:33:25 10° NW visible
05 Jun ? 23:47:06 10° SE 00:17:24 17° S 00:47:28 10° SSW visible
06 Jun ? 05:06:17 10° NE 06:12:49 84° NW 07:20:16 10° SW visible
06 Jun ? 16:53:45 10° SE 17:59:49 88° SW 19:05:35 10° NW visible
06 Jun ? 23:23:19 10° SSE 23:52:42 17° S 00:21:57 10° SSW visible
07 Jun ? 04:38:00 10° NE 05:45:00 88° SE 06:52:18 10° SW visible
07 Jun ? 16:25:40 10° SE 17:31:52 85° NE 18:37:18 10° NW visible
07 Jun ? 22:58:09 10° SSE 23:27:59 17° S 23:57:49 10° SW visible
08 Jun ? 04:10:11 10° NE 05:17:11 81° SE 06:23:54 10° SW visible
08 Jun ? 22:31:38 10° SSE 23:03:12 18° S 23:34:54 10° SW visible
